AAL1664 KPBI-KDCA

Flight info

Callsign AAL1664
Flight time N/A
Altitude 35000
Route SLIDZ3 LENDS GRUBR Y299 SEELO GARIC RANAY TANJA WAVES CAPSS3
Aircraft B738/M-SDE2E3FGHIRWXY/LB1

Departure

Time 2026-04-18 04:32
Airport Palm Beach International Airport (KPBI)

Arrival

Time N/A
Airport Ronald Reagan Washington National Airport (KDCA)
Time Latitude Longitude Altitude Speed Heading
2026-04-18 03:56 26.68739 -80.08994 18 ft 0 kts 92°
2026-04-18 04:17 26.68739 -80.09003 18 ft 2 kts 92°
2026-04-18 04:18 26.68740 -80.09020 17 ft 2 kts 92°
2026-04-18 04:18 26.68740 -80.09037 17 ft 2 kts 92°
2026-04-18 04:18 26.68740 -80.09054 17 ft 2 kts 74°
2026-04-18 04:18 26.68733 -80.09068 18 ft 2 kts 50°
2026-04-18 04:19 26.68722 -80.09079 17 ft 2 kts 25°
2026-04-18 04:19 26.68707 -80.09084 17 ft 2 kts 360°
2026-04-18 04:19 26.68692 -80.09083 17 ft 2 kts
2026-04-18 04:19 26.68677 -80.09084 17 ft 2 kts
2026-04-18 04:20 26.68662 -80.09084 17 ft 2 kts
2026-04-18 04:20 26.68647 -80.09085 18 ft 2 kts
2026-04-18 04:20 26.68632 -80.09086 17 ft 2 kts
2026-04-18 04:20 26.68616 -80.09086 18 ft 2 kts
2026-04-18 04:21 26.68602 -80.09087 17 ft 2 kts
2026-04-18 04:21 26.68586 -80.09087 17 ft 2 kts
2026-04-18 04:21 26.68571 -80.09088 17 ft 2 kts
2026-04-18 04:21 26.68556 -80.09089 17 ft 2 kts
2026-04-18 04:22 26.68541 -80.09089 17 ft 2 kts
2026-04-18 04:22 26.68526 -80.09090 18 ft 2 kts
2026-04-18 04:22 26.68511 -80.09090 17 ft 2 kts
2026-04-18 04:22 26.68496 -80.09091 18 ft 2 kts
2026-04-18 04:23 26.68481 -80.09091 18 ft 2 kts
2026-04-18 04:23 26.68466 -80.09088 18 ft 2 kts 329°
2026-04-18 04:23 26.68455 -80.09077 18 ft 2 kts 304°
2026-04-18 04:23 26.68448 -80.09061 17 ft 2 kts 279°
2026-04-18 04:24 26.68448 -80.09045 17 ft 2 kts 269°
2026-04-18 04:24 26.68448 -80.09029 18 ft 2 kts 273°
2026-04-18 04:24 26.68447 -80.09022 18 ft 0 kts 272°
2026-04-18 04:26 26.68447 -80.09025 18 ft 2 kts 272°
2026-04-18 04:26 26.68442 -80.09106 17 ft 15 kts 243°
2026-04-18 04:26 26.68369 -80.09223 17 ft 18 kts 252°
2026-04-18 04:26 26.68365 -80.09360 17 ft 17 kts 272°
2026-04-18 04:27 26.68372 -80.09520 18 ft 24 kts 273°
2026-04-18 04:27 26.68384 -80.09720 18 ft 25 kts 274°
2026-04-18 04:27 26.68395 -80.09911 18 ft 23 kts 273°
2026-04-18 04:27 26.68400 -80.10088 18 ft 21 kts 270°
2026-04-18 04:28 26.68405 -80.10251 17 ft 20 kts 273°
2026-04-18 04:28 26.68412 -80.10400 19 ft 17 kts 273°
2026-04-18 04:28 26.68418 -80.10524 21 ft 15 kts 273°
2026-04-18 04:28 26.68424 -80.10635 21 ft 13 kts 273°
2026-04-18 04:29 26.68417 -80.10728 21 ft 10 kts 212°
2026-04-18 04:29 26.68409 -80.10733 21 ft 0 kts 204°
2026-04-18 04:30 26.68387 -80.10741 21 ft 10 kts 192°
2026-04-18 04:30 26.68318 -80.10691 21 ft 15 kts 96°
2026-04-18 04:31 26.68315 -80.10661 21 ft 0 kts 95°
2026-04-18 04:31 26.68307 -80.10511 21 ft 55 kts 92°
2026-04-18 04:31 26.68281 -80.09797 18 ft 127 kts 93°
2026-04-18 04:31 26.68225 -80.08582 89 ft 179 kts 93°
2026-04-18 04:32 26.68152 -80.07153 871 ft 184 kts 91°
2026-04-18 04:32 26.68148 -80.05756 1366 ft 187 kts 85°
2026-04-18 04:32 26.68526 -80.04303 1586 ft 203 kts 64°
2026-04-18 04:32 26.69246 -80.02877 1840 ft 218 kts 62°
2026-04-18 04:33 26.70013 -80.01338 2087 ft 234 kts 63°
2026-04-18 04:33 26.70800 -79.99675 2347 ft 249 kts 63°
2026-04-18 04:33 26.71623 -79.97940 2766 ft 256 kts 60°
2026-04-18 04:33 26.72661 -79.96287 3327 ft 263 kts 51°
2026-04-18 04:34 26.73860 -79.94750 4210 ft 264 kts 48°
2026-04-18 04:34 26.75083 -79.93240 5020 ft 268 kts 48°
2026-04-18 04:34 26.76324 -79.91681 5834 ft 271 kts 48°
2026-04-18 04:34 26.77562 -79.90092 6633 ft 274 kts 49°
2026-04-18 04:35 26.78816 -79.88466 7425 ft 276 kts 49°
2026-04-18 04:35 26.80074 -79.86834 8164 ft 280 kts 49°
2026-04-18 04:35 26.81334 -79.85200 8902 ft 283 kts 49°
2026-04-18 04:35 26.82623 -79.83526 9646 ft 285 kts 49°
2026-04-18 04:36 26.83928 -79.81832 10250 ft 293 kts 49°
2026-04-18 04:36 26.85295 -79.80059 10638 ft 308 kts 48°
2026-04-18 04:36 26.86720 -79.78211 11001 ft 323 kts 48°
2026-04-18 04:36 26.88222 -79.76263 11348 ft 338 kts 48°
2026-04-18 04:37 26.89783 -79.74237 11956 ft 344 kts 48°
2026-04-18 04:37 26.91354 -79.72196 12605 ft 347 kts 48°
2026-04-18 04:37 26.92953 -79.70200 13211 ft 351 kts 45°
2026-04-18 04:37 26.94694 -79.68246 13826 ft 354 kts 42°
2026-04-18 04:38 26.96493 -79.66369 14439 ft 357 kts 40°
2026-04-18 04:38 26.98337 -79.64484 15033 ft 360 kts 40°
2026-04-18 04:38 27.00189 -79.62585 15631 ft 363 kts 40°
2026-04-18 04:38 27.02048 -79.60658 16208 ft 366 kts 40°
2026-04-18 04:39 27.03918 -79.58700 16780 ft 369 kts 40°
2026-04-18 04:39 27.05805 -79.56714 17314 ft 373 kts 40°
2026-04-18 04:39 27.07676 -79.54737 17862 ft 375 kts 40°
2026-04-18 04:39 27.09596 -79.52706 18469 ft 376 kts 40°
2026-04-18 04:40 27.11504 -79.50687 19011 ft 378 kts 40°
2026-04-18 04:40 27.13419 -79.48661 19556 ft 380 kts 39°
2026-04-18 04:40 27.15331 -79.46639 20112 ft 382 kts 39°
2026-04-18 04:40 27.17269 -79.44587 20641 ft 384 kts 39°
2026-04-18 04:41 27.19223 -79.42519 21148 ft 386 kts 39°
2026-04-18 04:41 27.21162 -79.40462 21628 ft 388 kts 39°
2026-04-18 04:41 27.23128 -79.38379 22150 ft 389 kts 39°
2026-04-18 04:41 27.25108 -79.36277 22604 ft 392 kts 39°
2026-04-18 04:42 27.27093 -79.34171 23095 ft 394 kts 39°
2026-04-18 04:42 27.29100 -79.32040 23493 ft 397 kts 39°
2026-04-18 04:42 27.31115 -79.29900 23935 ft 400 kts 39°
2026-04-18 04:42 27.33122 -79.27766 24355 ft 403 kts 39°
2026-04-18 04:43 27.35180 -79.25577 24766 ft 406 kts 38°
2026-04-18 04:43 27.37214 -79.23412 25172 ft 408 kts 38°
2026-04-18 04:43 27.39294 -79.21198 25569 ft 411 kts 38°
2026-04-18 04:43 27.41379 -79.18976 25976 ft 413 kts 38°
2026-04-18 04:44 27.43469 -79.16748 26373 ft 415 kts 38°
2026-04-18 04:44 27.45543 -79.14534 26804 ft 416 kts 38°
2026-04-18 04:44 27.47648 -79.12288 27197 ft 418 kts 38°
2026-04-18 04:44 27.49754 -79.10038 27551 ft 420 kts 38°
2026-04-18 04:45 27.51875 -79.07770 27946 ft 422 kts 37°
2026-04-18 04:45 27.54028 -79.05470 28237 ft 425 kts 37°
2026-04-18 04:45 27.56185 -79.03163 28603 ft 427 kts 37°
2026-04-18 04:45 27.58323 -79.00874 28964 ft 429 kts 37°
2026-04-18 04:46 27.60496 -78.98547 29346 ft 429 kts 37°
2026-04-18 04:46 27.62661 -78.96242 29603 ft 432 kts 36°
2026-04-18 04:46 27.64937 -78.94025 29978 ft 429 kts 31°
2026-04-18 04:46 27.67412 -78.92148 30204 ft 426 kts 24°
2026-04-18 04:47 27.70044 -78.90670 30552 ft 421 kts 17°
2026-04-18 04:47 27.72773 -78.89564 30872 ft 418 kts 11°
2026-04-18 04:47 27.75609 -78.88824 31146 ft 415 kts
2026-04-18 04:47 27.78445 -78.88457 31457 ft 413 kts 359°
2026-04-18 04:48 27.81328 -78.88293 31726 ft 414 kts 358°
2026-04-18 04:48 27.84234 -78.88161 32040 ft 415 kts 358°
2026-04-18 04:48 27.87124 -78.87981 32345 ft 416 kts 359°
2026-04-18 04:48 27.90030 -78.87729 32701 ft 416 kts
2026-04-18 04:49 27.92939 -78.87413 33214 ft 413 kts
2026-04-18 04:49 27.95782 -78.87063 33644 ft 410 kts
2026-04-18 04:49 27.98635 -78.86688 34005 ft 410 kts
2026-04-18 04:49 28.01485 -78.86301 34271 ft 411 kts
2026-04-18 04:50 28.04369 -78.85902 34590 ft 410 kts
2026-04-18 04:50 28.07159 -78.85509 34983 ft 408 kts
2026-04-18 04:50 28.10018 -78.85106 35047 ft 410 kts
2026-04-18 04:51 28.15691 -78.84306 35050 ft 407 kts
2026-04-18 04:51 28.21340 -78.83506 35047 ft 408 kts
2026-04-18 04:52 28.26958 -78.82710 35050 ft 406 kts
2026-04-18 04:52 28.32610 -78.81910 35051 ft 408 kts
2026-04-18 04:53 28.38241 -78.81113 35051 ft 409 kts
2026-04-18 04:53 28.43894 -78.80309 35052 ft 409 kts
2026-04-18 04:54 28.49576 -78.79501 35051 ft 408 kts
2026-04-18 04:54 28.55198 -78.78700 35054 ft 409 kts
2026-04-18 04:55 28.60850 -78.77894 35055 ft 407 kts
2026-04-18 04:55 28.66489 -78.77089 35056 ft 408 kts
2026-04-18 04:56 28.75001 -78.75874 35055 ft 410 kts
2026-04-18 04:56 28.80641 -78.75066 35055 ft 407 kts
2026-04-18 04:57 28.86292 -78.74257 35057 ft 408 kts
2026-04-18 04:57 28.91939 -78.73448 35054 ft 409 kts
2026-04-18 04:58 28.97620 -78.72635 35054 ft 410 kts
2026-04-18 04:58 29.03300 -78.71819 35056 ft 409 kts
2026-04-18 04:59 29.08941 -78.71007 35053 ft 408 kts
2026-04-18 04:59 29.14608 -78.70193 35054 ft 409 kts
2026-04-18 05:00 29.20236 -78.69380 35055 ft 409 kts
2026-04-18 05:00 29.25908 -78.68562 35055 ft 410 kts
2026-04-18 05:01 29.31561 -78.67747 35056 ft 410 kts
2026-04-18 05:01 29.37223 -78.66927 35057 ft 409 kts
2026-04-18 05:02 29.42903 -78.66120 35056 ft 408 kts
2026-04-18 05:02 29.48552 -78.65328 35057 ft 410 kts
2026-04-18 05:03 29.54242 -78.64531 35057 ft 410 kts
2026-04-18 05:03 29.59887 -78.63734 35058 ft 408 kts
2026-04-18 05:04 29.65557 -78.62934 35055 ft 409 kts
2026-04-18 05:04 29.71217 -78.62137 35059 ft 411 kts
2026-04-18 05:05 29.76884 -78.61333 35058 ft 411 kts
2026-04-18 05:05 29.82588 -78.60523 35058 ft 409 kts
2026-04-18 05:06 29.88232 -78.59721 35057 ft 409 kts
2026-04-18 05:06 29.93923 -78.58913 35058 ft 410 kts
2026-04-18 05:07 29.99562 -78.58111 35060 ft 410 kts
2026-04-18 05:07 30.05257 -78.57303 35056 ft 411 kts
2026-04-18 05:08 30.10943 -78.56491 35055 ft 410 kts
2026-04-18 05:08 30.16618 -78.55682 35057 ft 410 kts
2026-04-18 05:09 30.22319 -78.54868 35058 ft 411 kts
2026-04-18 05:09 30.27999 -78.54057 35056 ft 411 kts
2026-04-18 05:10 30.33671 -78.53243 35056 ft 411 kts
2026-04-18 05:10 30.39383 -78.52423 35053 ft 410 kts
2026-04-18 05:11 30.45019 -78.51594 35051 ft 411 kts
2026-04-18 05:11 30.50727 -78.50671 35051 ft 412 kts
2026-04-18 05:12 30.56418 -78.49734 35050 ft 412 kts
2026-04-18 05:12 30.62106 -78.48800 35051 ft 412 kts
2026-04-18 05:13 30.67764 -78.47877 35049 ft 412 kts
2026-04-18 05:13 30.73467 -78.46948 35048 ft 411 kts
2026-04-18 05:14 30.79152 -78.46022 35048 ft 412 kts
2026-04-18 05:14 30.84837 -78.45097 35039 ft 412 kts
2026-04-18 05:15 30.90518 -78.44171 35042 ft 411 kts
2026-04-18 05:15 30.96170 -78.43249 35041 ft 413 kts
2026-04-18 05:16 31.01878 -78.42315 35042 ft 411 kts
2026-04-18 05:16 31.07547 -78.41387 35040 ft 412 kts
2026-04-18 05:17 31.13235 -78.40456 35040 ft 412 kts
2026-04-18 05:17 31.18944 -78.39520 35038 ft 412 kts
2026-04-18 05:18 31.24624 -78.38586 35037 ft 412 kts
2026-04-18 05:18 31.30308 -78.37650 35038 ft 413 kts
2026-04-18 05:19 31.35993 -78.36713 35036 ft 412 kts
2026-04-18 05:19 31.41697 -78.35774 35037 ft 412 kts
2026-04-18 05:20 31.47390 -78.34834 35033 ft 413 kts
2026-04-18 05:20 31.53085 -78.33891 35030 ft 412 kts
2026-04-18 05:21 31.58791 -78.32947 35029 ft 413 kts
2026-04-18 05:21 31.64466 -78.32008 35029 ft 413 kts
2026-04-18 05:22 31.70199 -78.31057 35029 ft 412 kts
2026-04-18 05:22 31.75880 -78.30112 35029 ft 413 kts
2026-04-18 05:23 31.81599 -78.29161 35029 ft 413 kts
2026-04-18 05:23 31.87289 -78.28213 35029 ft 411 kts
2026-04-18 05:24 31.92964 -78.27266 35029 ft 411 kts
2026-04-18 05:24 31.98652 -78.26320 35029 ft 414 kts
2026-04-18 05:25 32.04353 -78.25378 35028 ft 412 kts
2026-04-18 05:25 32.10045 -78.24531 35028 ft 411 kts
2026-04-18 05:26 32.15758 -78.23718 35027 ft 411 kts
2026-04-18 05:26 32.21448 -78.22902 35025 ft 411 kts
2026-04-18 05:27 32.27160 -78.22076 35024 ft 413 kts
2026-04-18 05:27 32.32813 -78.21250 35024 ft 411 kts
2026-04-18 05:28 32.38513 -78.20416 35022 ft 410 kts
2026-04-18 05:28 32.44196 -78.19584 35021 ft 411 kts
2026-04-18 05:29 32.49865 -78.18750 35020 ft 411 kts
2026-04-18 05:29 32.55561 -78.17909 35018 ft 411 kts
2026-04-18 05:30 32.61243 -78.17072 35017 ft 412 kts
2026-04-18 05:30 32.66932 -78.16231 35016 ft 409 kts
2026-04-18 05:31 32.72572 -78.15398 35016 ft 410 kts
2026-04-18 05:31 32.78240 -78.14560 35011 ft 409 kts
2026-04-18 05:32 32.83908 -78.13719 35014 ft 408 kts